星链-5780 (STARLINK-5780 )

导读

STARLINK-5780是美国太空探索技术公司(SpaceX)星链(Starlink)星座的卫星,于北京时间2023年6月23日8点发射,属于星链组网卫星,旨在为全球提供高速低延迟互联网服务,星链系统通过大规模低轨卫星组网,覆盖全球偏远地区,目前该卫星已在近地轨道服役近三年。

基本信息
目录编号:
57150
目录名称:
STARLINK-5780
国际标识:
2023-090BB
轨道中心:
EARTH
卫星名称:
星链-5780
卫星全名:
星链-5780 (STARLINK-5780 )
卫星状态:
在轨 (已飞行1169 天)
发射日期:
2023-06-23 UTC
国别 :
美国 (US)
星等 :
--
轨道信息
数据来源 国际轨道数据
星历时间: 2026-09-03T15:02:42+0800
1天前
查看轨道信息
半长轴: 6861.144km
偏心率: 0.0001676
轨道倾角: 43.004°
近地点辐角 278.787°
升交点赤经 347.315°
平近点角 81.279°
近地点: 481.857km
远地点: 484.157km
周期: 94.266分钟
每日圈数: 15.275942
详细信息
固有亮度:
5
最大亮度:
2.4
卫星平台:
Starlink v1.5
覆盖范围:
全球
运营商:
太空探索技术公司
运营商所在国:
美国
制造商(研发单位):
太空探索技术公司
制造商所在国:
美国
使用方式:
暂无
卫星简介
星链(Starlink)计划是由太空探索技术公司(SpaceX)提出的一个巨型低轨卫星互联网星座项目,计划在2019年至2024年间在太空搭建由约1.2万颗卫星组成的“星链”网络,其中1584颗将部署在地球上空550千米处的近地轨道,并从2020年开始工作。该卫星仍在工作。
2D轨道图
3D轨道图
轨道高度分析图
轨道倾角分析图
轨道综合分析图
查看轨道综合分析图
交会数据列表
事件ID 空间交会对象 最接近时刻(TCA) 交会距离 交会风险概率(CRP) 交会风险指数(CRI) 操作
CDM_260904-143905-715006-390521
2026-09-04T
14:39:27+0000
0.614 km
远距离
8.038861E-5 中风险 0.73
CDM_260829-093405-715006-390521
2026-08-29T
09:34:35+0000
0.873 km
远距离
2.694438E-5 中风险 0.64
CDM_260904-130505-715006-390521
2026-09-04T
13:05:18+0000
1.124 km
极远距离
1.131702E-5 中风险 0.56
CDM_260904-161305-715006-390521
2026-09-04T
16:13:36+0000
2.245 km
极远距离
1.452635E-6 低风险 0.38
CDM_260903-170105-715006-767522
2026-09-03T
17:01:30+0000
2.513 km
极远距离
1.249834E-6 低风险 0.37
CDM_260904-113105-715006-390521
2026-09-04T
11:31:08+0000
2.711 km
极远距离
1.04558E-6 低风险 0.35
CDM_260905-134205-715006-656221
2026-09-05T
13:42:32+0000
2.788 km
极远距离
9.186256E-7 极低风险 0.34